Time,TemperatureF,DewpointF,PressureIn,WindDirection,WindDirectionDegrees,WindSpeedMPH,WindSpeedGustMPH,Humidity,HourlyPrecipIn,Conditions,Clouds,dailyrainin,SoftwareType,DateUTC
2013-10-21 00:04:00,31.5,29.0,29.86,NW,317,0.0,-999.0,91,-99.99,,,0.00,weatherlink.com 1.10,2013-10-21 08:04:00,
2013-10-21 00:19:00,31.7,29.0,29.86,NW,316,0.0,-999.0,91,-99.99,,,0.00,weatherlink.com 1.10,2013-10-21 08:19:00,
2013-10-21 00:34:00,31.6,29.0,29.86,NW,317,0.0,-999.0,90,-99.99,,,0.00,weatherlink.com 1.10,2013-10-21 08:34:00,
2013-10-21 00:49:00,31.1,29.0,29.87,NW,316,0.0,-999.0,91,-99.99,,,0.00,weatherlink.com 1.10,2013-10-21 08:49:00,
2013-10-21 01:04:00,31.1,29.0,29.87,NW,317,0.0,-999.0,90,-99.99,,,0.00,weatherlink.com 1.10,2013-10-21 09:04:00,
2013-10-21 01:19:00,31.0,29.0,29.87,NW,316,0.0,-999.0,91,-99.99,,,0.00,weatherlink.com 1.10,2013-10-21 09:19:00,
2013-10-21 01:34:00,30.7,28.0,29.88,NW,317,0.0,-999.0,91,-99.99,,,0.00,weatherlink.com 1.10,2013-10-21 09:34:00,
2013-10-21 01:49:00,30.2,28.0,29.88,NW,317,0.0,-999.0,90,-99.99,,,0.00,weatherlink.com 1.10,2013-10-21 09:49:00,
2013-10-21 02:04:00,29.8,28.0,29.88,NW,316,0.0,-999.0,91,-99.99,,,0.00,weatherlink.com 1.10,2013-10-21 10:04:00,
2013-10-21 02:19:00,29.7,28.0,29.88,NW,317,0.0,-999.0,92,-99.99,,,0.00,weatherlink.com 1.10,2013-10-21 10:19:00,
2013-10-21 02:35:00,29.7,28.0,29.88,NW,317,0.0,-999.0,92,-99.99,,,0.00,weatherlink.com 1.10,2013-10-21 10:35:00,
2013-10-21 02:50:00,29.9,28.0,29.89,NW,317,0.0,-999.0,92,-99.99,,,0.00,weatherlink.com 1.10,2013-10-21 10:50:00,
2013-10-21 03:06:00,29.9,28.0,29.89,NW,317,0.0,-999.0,92,-99.99,,,0.00,weatherlink.com 1.10,2013-10-21 11:06:00,
2013-10-21 03:19:00,29.6,28.0,29.89,NW,317,0.0,-999.0,92,-99.99,,,0.00,weatherlink.com 1.10,2013-10-21 11:19:00,
2013-10-21 03:34:00,29.3,27.0,29.90,NW,317,0.0,-999.0,92,-99.99,,,0.00,weatherlink.com 1.10,2013-10-21 11:34:00,
2013-10-21 03:49:00,29.2,27.0,29.90,NW,316,0.0,-999.0,92,-99.99,,,0.00,weatherlink.com 1.10,2013-10-21 11:49:00,
2013-10-21 04:04:00,29.3,27.0,29.90,NW,317,0.0,-999.0,92,-99.99,,,0.00,weatherlink.com 1.10,2013-10-21 12:04:00,
2013-10-21 04:19:00,29.3,27.0,29.90,NW,317,0.0,-999.0,92,-99.99,,,0.00,weatherlink.com 1.10,2013-10-21 12:19:00,
2013-10-21 04:34:00,29.0,27.0,29.90,NW,317,0.0,-999.0,92,-99.99,,,0.00,weatherlink.com 1.10,2013-10-21 12:34:00,
2013-10-21 04:49:00,28.8,27.0,29.90,NW,316,0.0,-999.0,92,-99.99,,,0.00,weatherlink.com 1.10,2013-10-21 12:49:00,
2013-10-21 05:04:00,28.5,27.0,29.91,NW,317,0.0,-999.0,92,-99.99,,,0.00,weatherlink.com 1.10,2013-10-21 13:04:00,
2013-10-21 05:19:00,28.2,26.0,29.91,NW,317,0.0,-999.0,92,-99.99,,,0.00,weatherlink.com 1.10,2013-10-21 13:19:00,
2013-10-21 05:34:00,28.1,26.0,29.90,NW,317,0.0,-999.0,93,-99.99,,,0.00,weatherlink.com 1.10,2013-10-21 13:34:00,
2013-10-21 05:49:00,28.1,26.0,29.91,NW,317,0.0,-999.0,93,-99.99,,,0.00,weatherlink.com 1.10,2013-10-21 13:49:00,
2013-10-21 06:04:00,27.9,26.0,29.91,NW,316,0.0,-999.0,93,-99.99,,,0.00,weatherlink.com 1.10,2013-10-21 14:04:00,
2013-10-21 06:19:00,27.8,26.0,29.91,NW,317,0.0,-999.0,93,-99.99,,,0.00,weatherlink.com 1.10,2013-10-21 14:19:00,
2013-10-21 06:34:00,27.5,26.0,29.92,NW,317,0.0,-999.0,93,-99.99,,,0.00,weatherlink.com 1.10,2013-10-21 14:34:00,
2013-10-21 06:49:00,27.1,25.0,29.92,NW,317,0.0,-999.0,93,-99.99,,,0.00,weatherlink.com 1.10,2013-10-21 14:49:00,
2013-10-21 07:04:00,27.3,26.0,29.92,NW,317,0.0,-999.0,94,-99.99,,,0.00,weatherlink.com 1.10,2013-10-21 15:04:00,
2013-10-21 07:19:00,27.1,25.0,29.93,NW,317,0.0,-999.0,93,-99.99,,,0.00,weatherlink.com 1.10,2013-10-21 15:19:00,
2013-10-21 07:34:00,27.4,26.0,29.92,NW,317,0.0,-999.0,94,-99.99,,,0.00,weatherlink.com 1.10,2013-10-21 15:34:00,
2013-10-21 07:49:00,27.6,26.0,29.93,NNW,335,0.0,-999.0,93,-99.99,,,0.00,weatherlink.com 1.10,2013-10-21 15:49:00,
2013-10-21 08:04:00,27.6,26.0,29.93,NNW,335,0.0,-999.0,93,-99.99,,,0.00,weatherlink.com 1.10,2013-10-21 16:04:00,
2013-10-21 08:19:00,27.9,26.0,29.93,NNW,335,0.0,-999.0,94,-99.99,,,0.00,weatherlink.com 1.10,2013-10-21 16:19:00,
2013-10-21 08:34:00,27.9,26.0,29.94,NNW,335,0.0,-999.0,93,-99.99,,,0.00,weatherlink.com 1.10,2013-10-21 16:34:00,
2013-10-21 08:49:00,27.9,26.0,29.94,NNW,335,0.0,-999.0,93,-99.99,,,0.00,weatherlink.com 1.10,2013-10-21 16:49:00,
2013-10-21 09:04:00,28.2,27.0,29.95,NNW,335,0.0,-999.0,93,-99.99,,,0.00,weatherlink.com 1.10,2013-10-21 17:04:00,
2013-10-21 09:19:00,28.4,27.0,29.95,NNW,335,0.0,-999.0,94,-99.99,,,0.00,weatherlink.com 1.10,2013-10-21 17:19:00,
2013-10-21 09:34:00,28.5,27.0,29.96,NNW,335,0.0,-999.0,93,-99.99,,,0.00,weatherlink.com 1.10,2013-10-21 17:34:00,
2013-10-21 09:49:00,28.5,27.0,29.97,NNW,335,0.0,-999.0,93,-99.99,,,0.00,weatherlink.com 1.10,2013-10-21 17:49:00,
2013-10-21 10:04:00,28.6,27.0,29.97,NNW,335,0.0,-999.0,93,-99.99,,,0.00,weatherlink.com 1.10,2013-10-21 18:04:00,
2013-10-21 10:19:00,29.0,28.0,29.98,NNW,335,0.0,-999.0,94,-99.99,,,0.00,weatherlink.com 1.10,2013-10-21 18:19:00,
2013-10-21 10:34:00,29.1,27.0,29.98,NNW,338,0.0,-999.0,93,-99.99,,,0.00,weatherlink.com 1.10,2013-10-21 18:34:00,
2013-10-21 10:49:00,29.4,28.0,29.98,NNW,338,0.0,-999.0,93,-99.99,,,0.00,weatherlink.com 1.10,2013-10-21 18:49:00,
2013-10-21 11:04:00,29.9,28.0,29.98,NNW,338,0.0,-999.0,92,-99.99,,,0.00,weatherlink.com 1.10,2013-10-21 19:04:00,
2013-10-21 11:19:00,30.3,28.0,29.98,NE,46,2.0,-999.0,91,-99.99,,,0.00,weatherlink.com 1.10,2013-10-21 19:19:00,
2013-10-21 11:34:00,31.5,29.0,29.98,ENE,71,2.0,-999.0,90,-99.99,,,0.00,weatherlink.com 1.10,2013-10-21 19:34:00,
2013-10-21 11:49:00,32.2,29.0,29.99,ENE,65,2.0,-999.0,88,-99.99,,,0.00,weatherlink.com 1.10,2013-10-21 19:49:00,
2013-10-21 12:04:00,32.2,29.0,29.99,ENE,65,0.0,-999.0,87,-99.99,,,0.00,weatherlink.com 1.10,2013-10-21 20:04:00,
2013-10-21 12:19:00,32.5,29.0,30.00,ENE,65,2.0,-999.0,86,-99.99,,,0.00,weatherlink.com 1.10,2013-10-21 20:19:00,
2013-10-21 12:34:00,33.1,29.0,30.00,ENE,65,2.0,-999.0,85,-99.99,,,0.00,weatherlink.com 1.10,2013-10-21 20:34:00,
2013-10-21 12:49:00,33.4,29.0,30.00,ENE,65,0.0,-999.0,85,-99.99,,,0.00,weatherlink.com 1.10,2013-10-21 20:49:00,
2013-10-21 13:04:00,33.6,29.0,30.00,ENE,65,1.0,-999.0,84,-99.99,,,0.00,weatherlink.com 1.10,2013-10-21 21:04:00,
2013-10-21 13:19:00,34.1,30.0,30.00,ENE,65,0.0,-999.0,84,-99.99,,,0.00,weatherlink.com 1.10,2013-10-21 21:19:00,
2013-10-21 13:34:00,34.5,30.0,30.01,ENE,65,0.0,-999.0,83,-99.99,,,0.00,weatherlink.com 1.10,2013-10-21 21:34:00,
2013-10-21 13:49:00,34.5,30.0,30.01,ENE,65,0.0,-999.0,83,-99.99,,,0.00,weatherlink.com 1.10,2013-10-21 21:49:00,
2013-10-21 14:04:00,34.3,29.0,30.01,ENE,65,0.0,-999.0,81,-99.99,,,0.00,weatherlink.com 1.10,2013-10-21 22:04:00,
2013-10-21 14:19:00,34.4,29.0,30.01,ENE,65,0.0,-999.0,81,-99.99,,,0.00,weatherlink.com 1.10,2013-10-21 22:19:00,
2013-10-21 14:34:00,34.6,29.0,30.01,ENE,65,0.0,-999.0,80,-99.99,,,0.00,weatherlink.com 1.10,2013-10-21 22:34:00,
2013-10-21 14:49:00,35.1,29.0,30.01,ENE,66,0.0,-999.0,79,-99.99,,,0.00,weatherlink.com 1.10,2013-10-21 22:49:00,
2013-10-21 15:04:00,35.7,29.0,30.01,East,84,1.0,-999.0,77,-99.99,,,0.00,weatherlink.com 1.10,2013-10-21 23:04:00,
2013-10-21 15:19:00,35.8,29.0,30.02,East,86,0.0,-999.0,77,-99.99,,,0.00,weatherlink.com 1.10,2013-10-21 23:19:00,
2013-10-21 15:34:00,35.7,29.0,30.02,East,86,0.0,-999.0,77,-99.99,,,0.00,weatherlink.com 1.10,2013-10-21 23:34:00,
2013-10-21 15:49:00,35.9,29.0,30.02,East,86,2.0,-999.0,77,-99.99,,,0.00,weatherlink.com 1.10,2013-10-21 23:49:00,
2013-10-21 16:04:00,36.1,29.0,30.02,East,86,1.0,-999.0,76,-99.99,,,0.00,weatherlink.com 1.10,2013-10-22 00:04:00,
2013-10-21 16:19:00,36.1,29.0,30.03,East,86,0.0,-999.0,76,-99.99,,,0.00,weatherlink.com 1.10,2013-10-22 00:19:00,
2013-10-21 16:34:00,36.2,29.0,30.03,East,86,0.0,-999.0,76,-99.99,,,0.00,weatherlink.com 1.10,2013-10-22 00:34:00,
2013-10-21 16:49:00,36.4,30.0,30.03,East,86,0.0,-999.0,76,-99.99,,,0.00,weatherlink.com 1.10,2013-10-22 00:49:00,
2013-10-21 17:04:00,36.4,29.0,30.03,East,86,0.0,-999.0,75,-99.99,,,0.00,weatherlink.com 1.10,2013-10-22 01:04:00,
2013-10-21 17:19:00,35.9,29.0,30.04,East,86,0.0,-999.0,77,-99.99,,,0.00,weatherlink.com 1.10,2013-10-22 01:19:00,
2013-10-21 17:34:00,35.2,29.0,30.03,East,86,0.0,-999.0,79,-99.99,,,0.00,weatherlink.com 1.10,2013-10-22 01:34:00,
2013-10-21 17:49:00,34.6,29.0,30.04,East,86,0.0,-999.0,80,-99.99,,,0.00,weatherlink.com 1.10,2013-10-22 01:49:00,
2013-10-21 18:04:00,34.4,29.0,30.03,East,86,0.0,-999.0,81,-99.99,,,0.00,weatherlink.com 1.10,2013-10-22 02:04:00,
2013-10-21 18:19:00,33.9,29.0,30.04,East,86,0.0,-999.0,81,-99.99,,,0.00,weatherlink.com 1.10,2013-10-22 02:19:00,
2013-10-21 18:34:00,33.5,28.0,30.04,East,86,0.0,-999.0,81,-99.99,,,0.00,weatherlink.com 1.10,2013-10-22 02:34:00,
2013-10-21 18:49:00,33.3,28.0,30.04,East,86,0.0,-999.0,81,-99.99,,,0.00,weatherlink.com 1.10,2013-10-22 02:49:00,
2013-10-21 19:04:00,33.0,28.0,30.04,East,86,0.0,-999.0,82,-99.99,,,0.00,weatherlink.com 1.10,2013-10-22 03:04:00,
2013-10-21 19:19:00,32.5,28.0,30.04,East,86,0.0,-999.0,82,-99.99,,,0.00,weatherlink.com 1.10,2013-10-22 03:19:00,
2013-10-21 19:34:00,32.0,27.0,30.05,East,86,0.0,-999.0,83,-99.99,,,0.00,weatherlink.com 1.10,2013-10-22 03:34:00,
2013-10-21 19:49:00,31.1,27.0,30.05,East,86,0.0,-999.0,84,-99.99,,,0.00,weatherlink.com 1.10,2013-10-22 03:49:00,
2013-10-21 20:04:00,30.7,27.0,30.05,East,86,0.0,-999.0,85,-99.99,,,0.00,weatherlink.com 1.10,2013-10-22 04:04:00,
2013-10-21 20:19:00,30.2,27.0,30.05,East,86,0.0,-999.0,86,-99.99,,,0.00,weatherlink.com 1.10,2013-10-22 04:19:00,
2013-10-21 20:34:00,29.3,26.0,30.05,East,86,0.0,-999.0,88,-99.99,,,0.00,weatherlink.com 1.10,2013-10-22 04:34:00,
2013-10-21 20:49:00,29.1,26.0,30.06,East,86,0.0,-999.0,88,-99.99,,,0.00,weatherlink.com 1.10,2013-10-22 04:49:00,
2013-10-21 21:04:00,29.1,26.0,30.06,East,86,0.0,-999.0,88,-99.99,,,0.00,weatherlink.com 1.10,2013-10-22 05:04:00,
2013-10-21 21:19:00,29.1,26.0,30.06,East,86,0.0,-999.0,87,-99.99,,,0.00,weatherlink.com 1.10,2013-10-22 05:19:00,
2013-10-21 21:34:00,28.4,25.0,30.07,East,86,0.0,-999.0,86,-99.99,,,0.00,weatherlink.com 1.10,2013-10-22 05:34:00,
2013-10-21 21:49:00,27.8,25.0,30.07,East,86,0.0,-999.0,88,-99.99,,,0.00,weatherlink.com 1.10,2013-10-22 05:49:00,
2013-10-21 22:04:00,27.3,25.0,30.07,East,86,0.0,-999.0,89,-99.99,,,0.00,weatherlink.com 1.10,2013-10-22 06:04:00,
2013-10-21 22:19:00,27.1,25.0,30.07,East,86,0.0,-999.0,90,-99.99,,,0.00,weatherlink.com 1.10,2013-10-22 06:19:00,
2013-10-21 22:34:00,27.1,25.0,30.08,East,86,0.0,-999.0,91,-99.99,,,0.00,weatherlink.com 1.10,2013-10-22 06:34:00,
2013-10-21 22:49:00,27.1,25.0,30.07,East,86,0.0,-999.0,92,-99.99,,,0.00,weatherlink.com 1.10,2013-10-22 06:49:00,
2013-10-21 23:04:00,26.8,25.0,30.08,East,86,0.0,-999.0,91,-99.99,,,0.00,weatherlink.com 1.10,2013-10-22 07:04:00,
2013-10-21 23:19:00,26.6,24.0,30.08,East,86,0.0,-999.0,91,-99.99,,,0.00,weatherlink.com 1.10,2013-10-22 07:19:00,
2013-10-21 23:34:00,26.5,24.0,30.08,ENE,57,0.0,-999.0,90,-99.99,,,0.00,weatherlink.com 1.10,2013-10-22 07:34:00,
2013-10-21 23:49:00,26.1,24.0,30.08,ENE,57,0.0,-999.0,90,-99.99,,,0.00,weatherlink.com 1.10,2013-10-22 07:49:00,